Year,Month,Day,Hour,Minute,Value (Times are PST for temperature in C)
2020,10,29,00,00,9.20
2020,10,29,00,01,9.20
2020,10,29,00,02,9.20
2020,10,29,00,03,9.20
2020,10,29,00,04,9.20
2020,10,29,00,05,9.20
2020,10,29,00,06,9.20
2020,10,29,00,07,9.20
2020,10,29,00,08,9.20
2020,10,29,00,09,9.20
2020,10,29,00,10,9.20
2020,10,29,00,11,9.20
2020,10,29,00,12,9.20
2020,10,29,00,13,9.20
2020,10,29,00,14,9.20
2020,10,29,00,15,9.20
2020,10,29,00,16,9.20
2020,10,29,00,17,9.20
2020,10,29,00,18,9.20
2020,10,29,00,19,9.20
2020,10,29,00,20,9.20
2020,10,29,00,21,9.20
2020,10,29,00,22,9.10
2020,10,29,00,23,9.10
2020,10,29,00,24,9.10
2020,10,29,00,25,9.10
2020,10,29,00,26,9.10
2020,10,29,00,27,9.20
2020,10,29,00,28,9.20
2020,10,29,00,29,9.20
2020,10,29,00,30,9.10
2020,10,29,00,31,9.10
2020,10,29,00,32,9.10
2020,10,29,00,33,9.10
2020,10,29,00,34,9.10
2020,10,29,00,35,9.10
2020,10,29,00,36,9.10
2020,10,29,00,37,9.10
2020,10,29,00,38,9.20
2020,10,29,00,39,9.20
2020,10,29,00,40,9.20
2020,10,29,00,41,9.20
2020,10,29,00,42,9.20
2020,10,29,00,43,9.30
2020,10,29,00,44,9.30
2020,10,29,00,45,9.30
2020,10,29,00,46,9.30
2020,10,29,00,47,9.20
2020,10,29,00,48,9.20
2020,10,29,00,49,9.20
2020,10,29,00,50,9.10
2020,10,29,00,51,9.10
2020,10,29,00,52,9.00
2020,10,29,00,53,8.90
2020,10,29,00,54,8.90
2020,10,29,00,55,8.80
2020,10,29,00,56,8.70
2020,10,29,00,57,8.70
2020,10,29,00,58,8.70
2020,10,29,00,59,8.70
2020,10,29,01,00,8.60
2020,10,29,01,01,8.60
2020,10,29,01,02,8.60
2020,10,29,01,03,8.60
2020,10,29,01,04,8.60
2020,10,29,01,05,8.60
2020,10,29,01,06,8.60
2020,10,29,01,07,8.60
2020,10,29,01,08,8.60
2020,10,29,01,09,8.60
2020,10,29,01,10,8.60
2020,10,29,01,11,8.60
2020,10,29,01,12,8.60
2020,10,29,01,13,8.60
2020,10,29,01,14,8.60
2020,10,29,01,15,8.60
2020,10,29,01,16,8.60
2020,10,29,01,17,8.60
2020,10,29,01,18,8.70
2020,10,29,01,19,8.70
2020,10,29,01,20,8.70
2020,10,29,01,21,8.70
2020,10,29,01,22,8.70
2020,10,29,01,23,8.70
2020,10,29,01,24,8.70
2020,10,29,01,25,8.70
2020,10,29,01,26,8.70
2020,10,29,01,27,8.70
2020,10,29,01,28,8.70
2020,10,29,01,29,8.60
2020,10,29,01,30,8.60
2020,10,29,01,31,8.60
2020,10,29,01,32,8.60
2020,10,29,01,33,8.60
2020,10,29,01,34,8.60
2020,10,29,01,35,8.60
2020,10,29,01,36,8.50
2020,10,29,01,37,8.50
2020,10,29,01,38,8.50
2020,10,29,01,39,8.50
2020,10,29,01,40,8.50
2020,10,29,01,41,8.50
2020,10,29,01,42,8.50
2020,10,29,01,43,8.50
2020,10,29,01,44,8.50
2020,10,29,01,45,8.40
2020,10,29,01,46,8.50
2020,10,29,01,47,8.50
2020,10,29,01,48,8.50
2020,10,29,01,49,8.50
2020,10,29,01,50,8.50
2020,10,29,01,51,8.50
2020,10,29,01,52,8.60
2020,10,29,01,53,8.60
2020,10,29,01,54,8.60
2020,10,29,01,55,8.60
2020,10,29,01,56,8.60
2020,10,29,01,57,8.60
2020,10,29,01,58,8.60
2020,10,29,01,59,8.60
2020,10,29,02,00,8.60
2020,10,29,02,01,8.60
2020,10,29,02,02,8.70
2020,10,29,02,03,8.70
2020,10,29,02,04,8.70
2020,10,29,02,05,8.70
2020,10,29,02,06,8.80
2020,10,29,02,07,8.80
2020,10,29,02,08,8.80
2020,10,29,02,09,8.80
2020,10,29,02,10,8.80
2020,10,29,02,11,8.80
2020,10,29,02,12,8.80
2020,10,29,02,13,8.80
2020,10,29,02,14,8.80
2020,10,29,02,15,8.80
2020,10,29,02,16,8.80
2020,10,29,02,17,8.80
2020,10,29,02,18,8.80
2020,10,29,02,19,8.80
2020,10,29,02,20,8.80
2020,10,29,02,21,8.80
2020,10,29,02,22,8.80
2020,10,29,02,23,8.80
2020,10,29,02,24,8.80
2020,10,29,02,25,8.80
2020,10,29,02,26,8.80
2020,10,29,02,27,8.80
2020,10,29,02,28,8.80
2020,10,29,02,29,8.80
2020,10,29,02,30,8.80
2020,10,29,02,31,8.80
2020,10,29,02,32,8.80
2020,10,29,02,33,8.80
2020,10,29,02,34,8.80
2020,10,29,02,35,8.80
2020,10,29,02,36,8.80
2020,10,29,02,37,8.80
2020,10,29,02,38,8.80
2020,10,29,02,39,8.80
2020,10,29,02,40,8.80
2020,10,29,02,41,8.80
2020,10,29,02,42,8.80
2020,10,29,02,43,8.80
2020,10,29,02,44,8.80
2020,10,29,02,45,8.80
2020,10,29,02,46,8.80
2020,10,29,02,47,8.80
2020,10,29,02,48,8.80
2020,10,29,02,49,8.80
2020,10,29,02,50,8.80
2020,10,29,02,51,8.80
2020,10,29,02,52,8.80
2020,10,29,02,53,8.80
2020,10,29,02,54,8.80
2020,10,29,02,55,8.80
2020,10,29,02,56,8.70
2020,10,29,02,57,8.70
2020,10,29,02,58,8.70
2020,10,29,02,59,8.70
2020,10,29,03,00,8.60
2020,10,29,03,01,8.60
2020,10,29,03,02,8.60
2020,10,29,03,03,8.50
2020,10,29,03,04,8.50
2020,10,29,03,05,8.50
2020,10,29,03,06,8.50
2020,10,29,03,07,8.50
2020,10,29,03,08,8.50
2020,10,29,03,09,8.40
2020,10,29,03,10,8.40
2020,10,29,03,11,8.40
2020,10,29,03,12,8.40
2020,10,29,03,13,8.40
2020,10,29,03,14,8.40
2020,10,29,03,15,8.40
2020,10,29,03,16,8.40
2020,10,29,03,17,8.50
2020,10,29,03,18,8.50
2020,10,29,03,19,8.50
2020,10,29,03,20,8.50
2020,10,29,03,21,8.60
2020,10,29,03,22,8.60
2020,10,29,03,23,8.60
2020,10,29,03,24,8.60
2020,10,29,03,25,8.60
2020,10,29,03,26,8.60
2020,10,29,03,27,8.60
2020,10,29,03,28,8.60
2020,10,29,03,29,8.60
2020,10,29,03,30,8.50
2020,10,29,03,31,8.50
2020,10,29,03,32,8.40
2020,10,29,03,33,8.40
2020,10,29,03,34,8.40
2020,10,29,03,35,8.40
2020,10,29,03,36,8.40
2020,10,29,03,37,8.30
2020,10,29,03,38,8.30
2020,10,29,03,39,8.30
2020,10,29,03,40,8.30
2020,10,29,03,41,8.30
2020,10,29,03,42,8.30
2020,10,29,03,43,8.30
2020,10,29,03,44,8.30
2020,10,29,03,45,8.30
2020,10,29,03,46,8.30
2020,10,29,03,47,8.30
2020,10,29,03,48,8.30
2020,10,29,03,49,8.30
2020,10,29,03,50,8.30
2020,10,29,03,51,8.30
2020,10,29,03,52,8.30
2020,10,29,03,53,8.30
2020,10,29,03,54,8.30
2020,10,29,03,55,8.30
2020,10,29,03,56,8.30
2020,10,29,03,57,8.30
2020,10,29,03,58,8.40
2020,10,29,03,59,8.40
2020,10,29,04,00,8.40
2020,10,29,04,01,8.40
2020,10,29,04,02,8.30
2020,10,29,04,03,8.30
2020,10,29,04,04,8.30
2020,10,29,04,05,8.30
2020,10,29,04,06,8.30
2020,10,29,04,07,8.30
2020,10,29,04,08,8.30
2020,10,29,04,09,8.30
2020,10,29,04,10,8.20
2020,10,29,04,11,8.30
2020,10,29,04,12,8.30
2020,10,29,04,13,8.30
2020,10,29,04,14,8.30
2020,10,29,04,15,8.20
2020,10,29,04,16,8.30
2020,10,29,04,17,8.30
2020,10,29,04,18,8.30
2020,10,29,04,19,8.30
2020,10,29,04,20,8.30
2020,10,29,04,21,8.30
2020,10,29,04,22,8.30
2020,10,29,04,23,8.40
2020,10,29,04,24,8.40
2020,10,29,04,25,8.40
2020,10,29,04,26,8.40
2020,10,29,04,27,8.40
2020,10,29,04,28,8.40
2020,10,29,04,29,8.40
2020,10,29,04,30,8.40
2020,10,29,04,31,8.40
2020,10,29,04,32,8.40
2020,10,29,04,33,8.40
2020,10,29,04,34,8.40
2020,10,29,04,35,8.40
2020,10,29,04,36,8.40
2020,10,29,04,37,8.40
2020,10,29,04,38,8.40
2020,10,29,04,39,8.40
2020,10,29,04,40,8.40
2020,10,29,04,41,8.40
2020,10,29,04,42,8.40
2020,10,29,04,43,8.40
2020,10,29,04,44,8.40
2020,10,29,04,45,8.30
2020,10,29,04,46,8.30
2020,10,29,04,47,8.30
2020,10,29,04,48,8.30
2020,10,29,04,49,8.30
2020,10,29,04,50,8.30
2020,10,29,04,51,8.30
2020,10,29,04,52,8.20
2020,10,29,04,53,8.20
2020,10,29,04,54,8.20
2020,10,29,04,55,8.20
2020,10,29,04,56,8.20
2020,10,29,04,57,8.20
2020,10,29,04,58,8.20
2020,10,29,04,59,8.20
2020,10,29,05,00,8.20
2020,10,29,05,01,8.20
2020,10,29,05,02,8.20
2020,10,29,05,03,8.20
2020,10,29,05,04,8.20
2020,10,29,05,05,8.20
2020,10,29,05,06,8.20
2020,10,29,05,07,8.20
2020,10,29,05,08,8.20
2020,10,29,05,09,8.20
2020,10,29,05,10,8.20
2020,10,29,05,11,8.20
2020,10,29,05,12,8.20
2020,10,29,05,13,8.20
2020,10,29,05,14,8.20
2020,10,29,05,15,8.20
2020,10,29,05,16,8.20
2020,10,29,05,17,8.20
2020,10,29,05,18,8.20
2020,10,29,05,19,8.20
2020,10,29,05,20,8.20
2020,10,29,05,21,8.20
2020,10,29,05,22,8.20
2020,10,29,05,23,8.20
2020,10,29,05,24,8.20
2020,10,29,05,25,8.20
2020,10,29,05,26,8.20
2020,10,29,05,27,8.20
2020,10,29,05,28,8.20
2020,10,29,05,29,8.20
2020,10,29,05,30,8.20
2020,10,29,05,31,8.20
2020,10,29,05,32,8.20
2020,10,29,05,33,8.20
2020,10,29,05,34,8.20
2020,10,29,05,35,8.20
2020,10,29,05,36,8.20
2020,10,29,05,37,8.10
2020,10,29,05,38,8.10
2020,10,29,05,39,8.10
2020,10,29,05,40,8.10
2020,10,29,05,41,8.10
2020,10,29,05,42,8.10
2020,10,29,05,43,8.10
2020,10,29,05,44,8.10
2020,10,29,05,45,8.10
2020,10,29,05,46,8.10
2020,10,29,09,26,10.70
2020,10,29,09,27,10.70
2020,10,29,09,28,10.70
2020,10,29,09,29,10.80
2020,10,29,09,30,10.80
2020,10,29,09,31,10.80
2020,10,29,09,32,10.80
2020,10,29,09,33,10.80
2020,10,29,09,34,10.80
2020,10,29,09,35,10.90
2020,10,29,09,36,10.90
2020,10,29,09,37,10.90
2020,10,29,09,38,10.90
2020,10,29,09,39,10.90
2020,10,29,09,40,10.90
2020,10,29,09,41,11.00
2020,10,29,09,42,11.00
2020,10,29,09,43,11.00
2020,10,29,09,44,11.00
2020,10,29,09,45,11.10
2020,10,29,09,46,11.10
2020,10,29,09,47,11.10
2020,10,29,09,48,11.10
2020,10,29,09,49,11.10
2020,10,29,09,50,11.10
2020,10,29,09,51,11.20
2020,10,29,09,52,11.20
2020,10,29,09,53,11.20
2020,10,29,09,54,11.20
2020,10,29,09,55,11.20
2020,10,29,09,56,11.20
2020,10,29,09,57,11.30
2020,10,29,09,58,11.30
2020,10,29,09,59,11.30
2020,10,29,10,00,11.30
2020,10,29,10,01,11.30
2020,10,29,10,02,11.40
2020,10,29,10,03,11.40
2020,10,29,10,04,11.40
2020,10,29,10,05,11.40
2020,10,29,10,06,11.40
2020,10,29,10,07,11.40
2020,10,29,10,08,11.50
2020,10,29,10,09,11.50
2020,10,29,10,10,11.50
2020,10,29,10,11,11.50
2020,10,29,10,12,11.60
2020,10,29,10,13,11.60
2020,10,29,10,14,11.60
2020,10,29,10,15,11.70
2020,10,29,10,16,11.70
2020,10,29,10,17,11.70
2020,10,29,10,18,11.80
2020,10,29,10,19,11.80
2020,10,29,10,20,11.80
2020,10,29,10,21,11.90
2020,10,29,10,22,11.90
2020,10,29,10,23,11.90
2020,10,29,10,24,12.00
2020,10,29,10,25,12.00
2020,10,29,10,26,12.10
2020,10,29,10,27,12.10
2020,10,29,10,28,12.20
2020,10,29,10,29,12.20
2020,10,29,10,30,12.30
2020,10,29,10,31,12.30
2020,10,29,10,32,12.30
2020,10,29,10,33,12.40
2020,10,29,10,34,12.50
2020,10,29,10,35,12.50
2020,10,29,10,36,12.60
2020,10,29,10,37,12.60
2020,10,29,10,38,12.60
2020,10,29,10,39,12.70
2020,10,29,10,40,12.70
2020,10,29,10,41,12.70
2020,10,29,10,42,12.70
2020,10,29,10,43,12.80
2020,10,29,10,44,12.80
2020,10,29,10,45,12.80
2020,10,29,10,46,12.80
2020,10,29,10,47,12.80
2020,10,29,10,48,12.80
2020,10,29,10,49,12.80
2020,10,29,10,50,12.80
2020,10,29,10,51,12.90
2020,10,29,10,52,12.90
2020,10,29,10,53,12.90
2020,10,29,10,54,12.90
2020,10,29,10,55,12.90
2020,10,29,10,56,12.90
2020,10,29,10,57,12.90
2020,10,29,10,58,13.00
2020,10,29,10,59,13.00
2020,10,29,11,00,13.00
2020,10,29,11,01,13.00
2020,10,29,11,02,13.00
2020,10,29,11,03,13.00
2020,10,29,11,04,13.00
2020,10,29,11,05,13.00
2020,10,29,11,06,13.00
2020,10,29,11,07,13.00
2020,10,29,11,08,13.00
2020,10,29,11,09,12.90
2020,10,29,11,10,12.90
2020,10,29,11,11,12.90
2020,10,29,11,12,12.90
2020,10,29,11,13,12.90
2020,10,29,11,14,13.00
2020,10,29,11,15,13.00
2020,10,29,11,16,13.00
2020,10,29,11,17,13.10
2020,10,29,11,18,13.10
2020,10,29,11,19,13.20
2020,10,29,11,20,13.20
2020,10,29,11,21,13.30
2020,10,29,11,22,13.40
2020,10,29,11,23,13.40
2020,10,29,11,24,13.50
2020,10,29,11,25,13.60
2020,10,29,11,26,13.70
2020,10,29,11,27,13.70
2020,10,29,11,28,13.80
2020,10,29,11,29,13.80
2020,10,29,11,30,13.90
2020,10,29,11,31,14.00
2020,10,29,11,32,14.10
2020,10,29,11,33,14.10
2020,10,29,11,34,14.20
2020,10,29,11,35,14.30
2020,10,29,11,36,14.40
2020,10,29,11,37,14.50
2020,10,29,11,38,14.50
2020,10,29,11,39,14.60
2020,10,29,11,40,14.70
2020,10,29,11,41,14.70
2020,10,29,11,42,14.80
2020,10,29,11,43,14.80
2020,10,29,11,44,14.80
2020,10,29,11,45,14.80
2020,10,29,11,46,14.80
2020,10,29,11,47,14.80
2020,10,29,11,48,14.80
2020,10,29,11,49,14.90
2020,10,29,11,50,14.90
2020,10,29,11,51,15.00
2020,10,29,11,52,15.10
2020,10,29,11,53,15.10
2020,10,29,11,54,15.20
2020,10,29,11,55,15.20
2020,10,29,11,56,15.30
2020,10,29,11,57,15.30
2020,10,29,11,58,15.30
2020,10,29,11,59,15.30
2020,10,29,12,00,15.30
2020,10,29,12,01,15.30
2020,10,29,12,02,15.30
2020,10,29,12,03,15.30
2020,10,29,12,04,15.40
2020,10,29,12,05,15.50
2020,10,29,12,06,15.50
2020,10,29,12,07,15.60
2020,10,29,12,08,15.60
2020,10,29,12,09,15.70
2020,10,29,12,10,15.70
2020,10,29,12,11,15.80
2020,10,29,12,12,15.90
2020,10,29,12,13,16.00
2020,10,29,12,14,16.10
2020,10,29,12,15,16.10
2020,10,29,12,16,16.20
2020,10,29,12,17,16.20
2020,10,29,12,18,16.20
2020,10,29,12,19,16.20
2020,10,29,12,20,16.30
2020,10,29,12,21,16.30
2020,10,29,12,22,16.30
2020,10,29,12,23,16.40
2020,10,29,12,24,16.40
2020,10,29,12,25,16.40
2020,10,29,12,26,16.40
2020,10,29,12,27,16.40
2020,10,29,12,28,16.40
2020,10,29,12,29,16.30
2020,10,29,12,30,16.30
2020,10,29,12,31,16.30
2020,10,29,12,32,16.20
2020,10,29,12,33,16.20
2020,10,29,12,34,16.10
2020,10,29,12,35,16.10
2020,10,29,12,36,16.00
2020,10,29,12,37,15.90
2020,10,29,12,38,15.90
2020,10,29,12,39,15.90
2020,10,29,12,40,15.80
2020,10,29,12,41,15.80
2020,10,29,12,42,15.80
2020,10,29,12,43,15.80
2020,10,29,12,44,15.80
2020,10,29,12,45,15.70
2020,10,29,12,46,15.70
2020,10,29,12,47,15.70
2020,10,29,12,48,15.70
2020,10,29,12,49,15.70
2020,10,29,12,50,15.70
2020,10,29,12,51,15.70
2020,10,29,12,52,15.70
2020,10,29,12,53,15.80
2020,10,29,12,54,15.80
2020,10,29,12,55,15.80
2020,10,29,12,56,15.80
2020,10,29,12,57,15.70
2020,10,29,12,58,15.70
2020,10,29,12,59,15.70
2020,10,29,13,00,15.60
2020,10,29,13,01,15.60
2020,10,29,13,02,15.60
2020,10,29,13,03,15.60
2020,10,29,13,04,15.60
2020,10,29,13,05,15.60
2020,10,29,13,06,15.60
2020,10,29,13,07,15.60
2020,10,29,13,08,15.60
2020,10,29,13,09,15.60
2020,10,29,13,10,15.50
2020,10,29,13,11,15.50
2020,10,29,13,12,15.50
2020,10,29,13,13,15.40
2020,10,29,13,14,15.40
2020,10,29,13,15,15.40
2020,10,29,13,16,15.40
2020,10,29,13,17,15.50
2020,10,29,13,18,15.50
2020,10,29,13,19,15.50
2020,10,29,13,20,15.60
2020,10,29,13,21,15.60
2020,10,29,13,22,15.60
2020,10,29,13,23,15.50
2020,10,29,13,24,15.50
2020,10,29,13,25,15.40
2020,10,29,13,26,15.40
2020,10,29,13,27,15.30
2020,10,29,13,28,15.30
2020,10,29,13,29,15.20
2020,10,29,13,30,15.10
2020,10,29,13,31,15.00
2020,10,29,13,32,14.90
2020,10,29,13,33,14.80
2020,10,29,13,34,14.80
2020,10,29,13,35,14.70
2020,10,29,13,36,14.70
2020,10,29,13,37,14.70
2020,10,29,13,38,14.60
2020,10,29,13,39,14.60
2020,10,29,13,40,14.60
2020,10,29,13,41,14.60
2020,10,29,13,42,14.60
2020,10,29,13,43,14.50
2020,10,29,13,44,14.50
2020,10,29,13,45,14.50
2020,10,29,13,46,14.50
2020,10,29,13,47,14.50
2020,10,29,13,48,14.60
2020,10,29,13,49,14.60
2020,10,29,13,50,14.60
2020,10,29,13,51,14.60
2020,10,29,13,52,14.60
2020,10,29,13,53,14.60
2020,10,29,13,54,14.60
2020,10,29,13,55,14.60
2020,10,29,13,56,14.60
2020,10,29,13,57,14.60
2020,10,29,13,58,14.60
2020,10,29,13,59,14.60
2020,10,29,14,00,14.50
2020,10,29,14,01,14.50
2020,10,29,14,02,14.40
2020,10,29,14,03,14.40
2020,10,29,14,04,14.40
2020,10,29,14,05,14.40
2020,10,29,14,06,14.30
2020,10,29,14,07,14.30
2020,10,29,14,08,14.30
2020,10,29,14,09,14.20
2020,10,29,14,10,14.20
2020,10,29,14,11,14.20
2020,10,29,14,12,14.20
2020,10,29,14,13,14.10
2020,10,29,14,14,14.10
2020,10,29,14,15,14.10
2020,10,29,14,16,14.10
2020,10,29,14,17,14.10
2020,10,29,14,18,14.10
2020,10,29,14,19,14.10
2020,10,29,14,20,14.00
2020,10,29,14,21,14.00
2020,10,29,14,22,14.00
2020,10,29,14,23,14.00
2020,10,29,14,24,14.10
2020,10,29,14,25,14.10
2020,10,29,14,26,14.10
2020,10,29,14,27,14.00
2020,10,29,14,28,14.10
2020,10,29,14,29,14.10
2020,10,29,14,30,14.10
2020,10,29,14,31,14.10
2020,10,29,14,32,14.10
2020,10,29,14,33,14.10
2020,10,29,14,34,14.10
2020,10,29,14,35,14.10
2020,10,29,14,36,14.10
2020,10,29,14,37,14.10
2020,10,29,14,38,14.00
2020,10,29,14,39,14.00
2020,10,29,14,40,14.00
2020,10,29,14,41,14.00
2020,10,29,14,42,13.90
2020,10,29,14,43,13.90
2020,10,29,14,44,13.90
2020,10,29,14,45,13.90
2020,10,29,14,46,13.90
2020,10,29,14,47,13.90
2020,10,29,14,48,13.90
2020,10,29,14,49,13.90
2020,10,29,14,50,13.90
2020,10,29,14,51,13.90
2020,10,29,14,52,13.90
2020,10,29,14,53,13.90
2020,10,29,14,54,13.90
2020,10,29,14,55,13.90
2020,10,29,14,56,13.90
2020,10,29,14,57,13.90
2020,10,29,14,58,13.80
2020,10,29,14,59,13.80
2020,10,29,15,00,13.80
2020,10,29,15,01,13.80
2020,10,29,15,02,13.80
2020,10,29,15,03,13.80
2020,10,29,15,04,13.80
2020,10,29,15,05,13.80
2020,10,29,15,06,13.80
2020,10,29,15,07,13.80
2020,10,29,15,08,13.80
2020,10,29,15,09,13.80
2020,10,29,15,10,13.80
2020,10,29,15,11,13.80
2020,10,29,15,12,13.80
2020,10,29,15,13,13.80
2020,10,29,15,14,13.80
2020,10,29,15,15,13.80
2020,10,29,15,16,13.80
2020,10,29,15,17,13.90
2020,10,29,15,18,13.90
2020,10,29,15,19,13.90
2020,10,29,15,20,13.90
2020,10,29,15,21,13.90
2020,10,29,15,22,13.90
2020,10,29,15,23,13.90
2020,10,29,15,24,13.90
2020,10,29,15,25,13.80
2020,10,29,15,26,13.80
2020,10,29,15,27,13.80
2020,10,29,15,28,13.80
2020,10,29,15,29,13.70
2020,10,29,15,30,13.70
2020,10,29,15,31,13.70
2020,10,29,15,32,13.70
2020,10,29,15,33,13.60
2020,10,29,15,34,13.60
2020,10,29,15,35,13.60
2020,10,29,15,36,13.60
2020,10,29,15,37,13.60
2020,10,29,15,38,13.60
2020,10,29,15,39,13.60
2020,10,29,15,40,13.60
2020,10,29,15,41,13.60
2020,10,29,15,42,13.60
2020,10,29,15,43,13.60
2020,10,29,15,44,13.60
2020,10,29,15,45,13.60
2020,10,29,15,46,13.70
2020,10,29,15,47,13.70
2020,10,29,15,48,13.70
2020,10,29,15,49,13.70
2020,10,29,15,50,13.70
2020,10,29,15,51,13.70
2020,10,29,15,52,13.80
2020,10,29,15,53,13.80
2020,10,29,15,54,13.80
2020,10,29,15,55,13.80
2020,10,29,15,56,13.80
2020,10,29,15,57,13.80
2020,10,29,15,58,13.80
2020,10,29,15,59,13.80
2020,10,29,16,00,13.80
2020,10,29,16,01,13.80
2020,10,29,16,02,13.80
2020,10,29,16,03,13.80
2020,10,29,16,04,13.90
2020,10,29,16,05,13.90
2020,10,29,16,06,13.90
2020,10,29,16,07,13.90
2020,10,29,16,08,13.90
2020,10,29,16,09,13.90
2020,10,29,16,10,13.80
2020,10,29,16,11,13.90
2020,10,29,16,12,13.90
2020,10,29,16,13,13.90
2020,10,29,16,14,13.90
2020,10,29,16,15,13.90
2020,10,29,16,16,13.90
2020,10,29,16,17,13.80
2020,10,29,16,18,13.80
2020,10,29,16,19,13.80
2020,10,29,16,20,13.80
2020,10,29,16,21,13.80
2020,10,29,16,22,13.70
2020,10,29,16,23,13.70
2020,10,29,16,24,13.70
2020,10,29,16,25,13.70
2020,10,29,16,26,13.70
2020,10,29,16,27,13.60
2020,10,29,16,28,13.60
2020,10,29,16,29,13.60
2020,10,29,16,30,13.60
2020,10,29,16,31,13.60
2020,10,29,16,32,13.50
2020,10,29,16,33,13.50
2020,10,29,16,34,13.50
2020,10,29,16,35,13.50
2020,10,29,16,36,13.50
2020,10,29,16,37,13.50
2020,10,29,16,38,13.50
2020,10,29,16,39,13.50
2020,10,29,16,40,13.50
2020,10,29,16,41,13.50
2020,10,29,16,42,13.50
2020,10,29,16,43,13.50
2020,10,29,16,44,13.50
2020,10,29,16,45,13.50
2020,10,29,16,46,13.40
2020,10,29,16,47,13.40
2020,10,29,16,48,13.40
2020,10,29,16,49,13.40
2020,10,29,16,50,13.40
2020,10,29,16,51,13.40
2020,10,29,16,52,13.40
2020,10,29,16,53,13.30
2020,10,29,16,54,13.30
2020,10,29,16,55,13.30
2020,10,29,16,56,13.30
2020,10,29,16,57,13.30
2020,10,29,16,58,13.30
2020,10,29,16,59,13.30
2020,10,29,17,00,13.30
2020,10,29,17,01,13.30
2020,10,29,17,02,13.30
2020,10,29,17,03,13.30
2020,10,29,17,04,13.30
2020,10,29,17,05,13.30
2020,10,29,17,06,13.30
2020,10,29,17,07,13.30
2020,10,29,17,08,13.30
2020,10,29,17,09,13.30
2020,10,29,17,10,13.30
2020,10,29,17,11,13.20
2020,10,29,17,12,13.20
2020,10,29,17,13,13.20
2020,10,29,17,14,13.20
2020,10,29,17,15,13.20
2020,10,29,17,16,13.20
2020,10,29,17,17,13.20
2020,10,29,17,18,13.20
2020,10,29,17,19,13.20
2020,10,29,17,20,13.20
2020,10,29,17,21,13.20
2020,10,29,17,22,13.20
2020,10,29,17,23,13.10
2020,10,29,17,24,13.10
2020,10,29,17,25,13.10
2020,10,29,17,26,13.10
2020,10,29,17,27,13.10
2020,10,29,17,28,13.10
2020,10,29,17,29,13.10
2020,10,29,17,30,13.10
2020,10,29,17,31,13.10
2020,10,29,17,32,13.10
2020,10,29,17,33,13.00
2020,10,29,17,34,13.00
2020,10,29,17,35,13.00
2020,10,29,17,36,13.00
2020,10,29,17,37,13.00
2020,10,29,17,38,13.00
2020,10,29,17,39,13.00
2020,10,29,17,40,12.90
2020,10,29,17,41,12.90
2020,10,29,17,42,12.90
2020,10,29,17,43,12.90
2020,10,29,17,44,12.90
2020,10,29,17,45,12.90
2020,10,29,17,46,12.90
2020,10,29,17,47,12.90
2020,10,29,17,48,12.80
2020,10,29,17,49,12.80
2020,10,29,17,50,12.80
2020,10,29,17,51,12.80
2020,10,29,17,52,12.80
2020,10,29,17,53,12.80
2020,10,29,17,54,12.80
2020,10,29,17,55,12.80
2020,10,29,17,56,12.80
2020,10,29,17,57,12.80
2020,10,29,17,58,12.80
2020,10,29,17,59,12.80
2020,10,29,18,00,12.70
2020,10,29,18,01,12.70
2020,10,29,18,02,12.70
2020,10,29,18,03,12.70
2020,10,29,18,04,12.70
2020,10,29,18,05,12.70
2020,10,29,18,06,12.70
2020,10,29,18,07,12.70
2020,10,29,18,08,12.60
2020,10,29,18,09,12.60
2020,10,29,18,10,12.60
2020,10,29,18,11,12.60
2020,10,29,18,12,12.60
2020,10,29,18,13,12.60
2020,10,29,18,14,12.50
2020,10,29,18,15,12.50
2020,10,29,18,16,12.50
2020,10,29,18,17,12.50
2020,10,29,18,18,12.40
2020,10,29,18,19,12.40
2020,10,29,18,20,12.40
2020,10,29,18,21,12.40
2020,10,29,18,22,12.40
2020,10,29,18,23,12.40
2020,10,29,18,24,12.40
2020,10,29,18,25,12.40
2020,10,29,18,26,12.30
2020,10,29,18,27,12.30
2020,10,29,18,28,12.30
2020,10,29,18,29,12.30
2020,10,29,18,30,12.30
2020,10,29,18,31,12.20
2020,10,29,18,32,12.20
2020,10,29,18,33,12.20
2020,10,29,18,34,12.20
2020,10,29,18,35,12.20
2020,10,29,18,36,12.20
2020,10,29,18,37,12.20
2020,10,29,18,38,12.20
2020,10,29,18,39,12.10
2020,10,29,18,40,12.10
2020,10,29,18,41,12.10
2020,10,29,18,42,12.10
2020,10,29,18,43,12.10
2020,10,29,18,44,12.10
2020,10,29,18,45,12.10
2020,10,29,18,46,12.00
2020,10,29,18,47,12.00
2020,10,29,18,48,12.00
2020,10,29,18,49,12.00
2020,10,29,18,50,11.90
2020,10,29,18,51,11.90
2020,10,29,18,52,11.90
2020,10,29,18,53,11.90
2020,10,29,18,54,11.90
2020,10,29,18,55,11.90
2020,10,29,18,56,11.90
2020,10,29,18,57,11.90
2020,10,29,18,58,11.90
2020,10,29,18,59,11.90
2020,10,29,19,00,11.90
2020,10,29,19,01,11.90
2020,10,29,19,02,11.80
2020,10,29,19,03,11.80
2020,10,29,19,04,11.80
2020,10,29,19,05,11.80
2020,10,29,19,06,11.80
2020,10,29,19,07,11.80
2020,10,29,19,08,11.80
2020,10,29,19,09,11.80
2020,10,29,19,10,11.80
2020,10,29,19,11,11.80
2020,10,29,19,12,11.80
2020,10,29,19,13,11.80
2020,10,29,19,14,11.70
2020,10,29,19,15,11.70
2020,10,29,19,16,11.70
2020,10,29,19,17,11.70
2020,10,29,19,18,11.70
2020,10,29,19,19,11.60
2020,10,29,19,20,11.60
2020,10,29,19,21,11.60
2020,10,29,19,22,11.60
2020,10,29,19,23,11.60
2020,10,29,19,24,11.50
2020,10,29,19,25,11.50
2020,10,29,19,26,11.50
2020,10,29,19,27,11.50
2020,10,29,19,28,11.40
2020,10,29,19,29,11.40
2020,10,29,19,30,11.40
2020,10,29,19,31,11.40
2020,10,29,19,32,11.40
2020,10,29,19,33,11.40
2020,10,29,19,34,11.40
2020,10,29,19,35,11.40
2020,10,29,19,36,11.40
2020,10,29,19,37,11.30
2020,10,29,19,38,11.30
2020,10,29,19,39,11.30
2020,10,29,19,40,11.30
2020,10,29,19,41,11.30
2020,10,29,19,42,11.20
2020,10,29,19,43,11.20
2020,10,29,19,44,11.20
2020,10,29,19,45,11.20
2020,10,29,19,46,11.20
2020,10,29,19,47,11.20
2020,10,29,19,48,11.20
2020,10,29,19,49,11.20
2020,10,29,19,50,11.20
2020,10,29,19,51,11.20
2020,10,29,19,52,11.20
2020,10,29,19,53,11.20
2020,10,29,19,54,11.10
2020,10,29,19,55,11.10
2020,10,29,19,56,11.10
2020,10,29,19,57,11.00
2020,10,29,19,58,11.00
2020,10,29,19,59,11.00
2020,10,29,20,00,10.90
2020,10,29,20,01,10.90
2020,10,29,20,02,10.90
2020,10,29,20,03,10.90
2020,10,29,20,04,10.80
2020,10,29,20,05,10.80
2020,10,29,20,06,10.80
2020,10,29,20,07,10.80
2020,10,29,20,08,10.80
2020,10,29,20,09,10.70
2020,10,29,20,10,10.70
2020,10,29,20,11,10.70
2020,10,29,20,12,10.70
2020,10,29,20,13,10.60
2020,10,29,20,14,10.60
2020,10,29,20,15,10.60
2020,10,29,20,16,10.50
2020,10,29,20,17,10.50
2020,10,29,20,18,10.50
2020,10,29,20,19,10.50
2020,10,29,20,20,10.50
2020,10,29,20,21,10.50
2020,10,29,20,22,10.50
2020,10,29,20,23,10.40
2020,10,29,20,24,10.40
2020,10,29,20,25,10.40
2020,10,29,20,26,10.40
2020,10,29,20,27,10.40
2020,10,29,20,28,10.40
2020,10,29,20,29,10.40
2020,10,29,20,30,10.40
2020,10,29,20,31,10.40
2020,10,29,20,32,10.30
2020,10,29,20,33,10.30
2020,10,29,20,34,10.30
2020,10,29,20,35,10.30
2020,10,29,20,36,10.30
2020,10,29,20,37,10.30
2020,10,29,20,38,10.30
2020,10,29,20,39,10.30
2020,10,29,20,40,10.30
2020,10,29,20,41,10.30
2020,10,29,20,42,10.30
2020,10,29,20,43,10.30
2020,10,29,20,44,10.30
2020,10,29,20,45,10.30
2020,10,29,20,46,10.30
2020,10,29,20,47,10.30
2020,10,29,20,48,10.30
2020,10,29,20,49,10.30
2020,10,29,20,50,10.20
2020,10,29,20,51,10.20
2020,10,29,20,52,10.20
2020,10,29,20,53,10.20
2020,10,29,20,54,10.20
2020,10,29,20,55,10.20
2020,10,29,20,56,10.20
2020,10,29,20,57,10.10
2020,10,29,20,58,10.10
2020,10,29,20,59,10.10
2020,10,29,21,00,10.10
2020,10,29,21,01,10.10
2020,10,29,21,02,10.10
2020,10,29,21,03,10.10
2020,10,29,21,04,10.10
2020,10,29,21,05,10.10
2020,10,29,21,06,10.10
2020,10,29,21,07,10.10
2020,10,29,21,08,10.10
2020,10,29,21,09,10.10
2020,10,29,21,10,10.10
2020,10,29,21,11,10.10
2020,10,29,21,12,10.10
2020,10,29,21,13,10.10